Cosmos 1515 - Orbit

View from above orbital plane
View from above orbital plane
View from above satellite
View from above satellite

Ground track
Ground track

The orbit data is extracted from the following two-line orbital elements,

1 14551U 83122A   13168.11051693  .00001536  00000-0  97012-4 0  6026
2 14551 082.5219 172.6993 0005102 333.2955 090.4107 15.08377652348831
Epoch (UTC): 17 June 2013 02:39:08
Eccentricity: 0.0005102
inclination: 82.5219°
perigee height: 537 km
apogee height: 544 km
right ascension of ascending node: 172.6993°
argument of perigee: 333.2955°
revolutions per day: 15.08377652
mean anomaly at epoch: 90.4107°
orbit number at epoch: 34883

The dashed part of the orbit path shows where the satellite is in the earth's shadow,  

Developed and maintained by Chris Peat, Heavens-Above GmbH. Please read the updated FAQ before sending e-mail. Imprint. DLR